This demonstration page uses our WeatherBlox Daily Observations layout. Learn more.

Left ArrowRight Arrow

38.80484, -77.04692

Hourly Observations for April 22, 2016

Temp ( °F °C ) Dew Point ( °F °C ) Humidity (%) Winds ( mph kmh ) Pressure ( in mb ) Visibility ( mi km ) Precip ( " mm )
12:52 am 00:52 Mostly Cloudy 69 20.6 57 13.9 66 66 SSW 12 19 29.97 1015 10 16 0.00 0.00
1:52 am 01:52 Mostly Cloudy 67 19.4 57 13.9 71 71 SSW 10 17 29.96 1015 10 16 0.00 0.00
2:52 am 02:52 Mostly Cloudy 67 19.4 58 14.4 73 73 S 9 15 29.94 1014 10 16 0.00 0.00
3:52 am 03:52 Cloudy 67 19.4 58 14.4 73 73 S 10 17 29.94 1014 10 16 0.00 0.00
4:52 am 04:52 Cloudy 67 19.4 58 14.4 73 73 S 13 20 29.93 1013 10 16 0.00 0.00
5:52 am 05:52 Partly Cloudy 65 18.3 58 14.4 78 78 SSW 12 19 29.93 1014 10 16 0.00 0.00
6:52 am 06:52 Mostly Cloudy 64 17.8 58 14.4 81 81 S 14 22 29.94 1014 10 16 0.00 0.00
7:52 am 07:52 Mostly Cloudy 66 18.9 58 14.4 75 75 SSW 12 19 29.94 1014 10 16 0.00 0.00
8:52 am 08:52 Mostly Cloudy 67 19.4 58 14.4 73 73 SSW 13 20 29.95 1014 10 16 0.00 0.00
9:52 am 09:52 Cloudy 67 19.4 58 14.4 73 73 SSW 12 19 29.95 1014 10 16 0.00 0.00
10:52 am 10:52 Mostly Cloudy 70 21.1 58 14.4 66 66 SSW 8 13 29.95 1014 10 16 0.00 0.00
11:52 am 11:52 Cloudy 74 23.3 58 14.4 57 57 SW 10 17 29.95 1014 10 16 0.00 0.00
12:52 pm 12:52 Cloudy 73 22.8 56 13.3 55 55 W 12 19 29.95 1014 10 16 0.00 0.00
1:52 pm 13:52 Cloudy with Light Rain 71 21.7 57 13.9 61 61 SW 13 20 29.94 1014 10 16 0.00 0.03
2:07 pm 14:07 Cloudy with Light Rain 70 21.1 58 14.4 66 66 WSW 9 15 29.94 1014 10 16 0.00 0.03
2:52 pm 14:52 Cloudy with Light Rain 70 21.1 58 14.4 66 66 SSW 13 20 29.92 1013 10 16 0.00 0.03
3:52 pm 15:52 Cloudy 71 21.7 60 15.6 68 68 S 10 17 29.89 1012 10 16 0.00 0.03
4:52 pm 16:52 Cloudy 71 21.7 59 15 66 66 SSW 13 20 29.88 1012 10 16 0.00 0.00
5:52 pm 17:52 Cloudy 70 21.1 61 16.1 73 73 S 12 19 29.88 1012 10 16 0.00 0.00
6:30 pm 18:30 Cloudy with Light Rain 68 20 63 17 83 83 S 10 17 29.88 1012 10 16 0.00 0.00
6:47 pm 18:47 Cloudy 68 20 61 16 78 78 S 14 22 29.88 1012 10 16 0.00 0.03
6:52 pm 18:52 Cloudy 68 20 61 16.1 78 78 S 13 20 29.88 1012 10 16 0.00 0.03
7:24 pm 19:24 Cloudy 66 19 63 17 88 88 S 10 17 29.88 1012 10 16 0.00 0.00
7:52 pm 19:52 Cloudy with Light Rain 66 18.9 62 16.7 87 87 S 10 17 29.87 1012 10 16 0.00 0.03
8:52 pm 20:52 Cloudy 66 18.9 62 16.7 87 87 S 9 15 29.88 1012 10 16 0.00 0.03
9:08 pm 21:08 Cloudy 66 19 63 17 88 88 SSW 8 13 29.88 1012 10 16 0.00 0.00
9:52 pm 21:52 Cloudy 66 18.9 61 16.1 84 84 S 8 13 29.87 1011 10 16 0.00 0.00
10:10 pm 22:10 Partly Cloudy 66 19 61 16 83 83 S 8 13 29.88 1012 10 16 0.00 0.00
10:52 pm 22:52 Cloudy 65 18.3 62 16.7 90 90 SSW 8 13 29.86 1011 10 16 0.00 0.00
11:20 pm 23:20 Cloudy with Light Rain 64 18 61 16 88 88 SSW 7 11 29.85 1011 10 16 0.00 0.00
11:52 pm 23:52 Cloudy 65 18.3 61 16.1 87 87 SSW 8 13 29.86 1011 10 16 0.00 0.03

Powered by AerisWeather